Laramie, WY

9:49 PM MST on November 19, 2017 (GMT -0700)
Laramie Regional

Weather History for KLAR - November, 2013

Change the Weather History Date:

Sunday, November 10, 2013

  Actual Average Record
Temperature  
Mean Temperature 42 °F 32 °F  
Max Temperature 57 °F 44 °F 68 °F (1980)
Min Temperature 26 °F 20 °F -23 °F (1950)
Degree Days  
Heating Degree Days 23 33  
Month to date heating degree days 308 310  
Since 1 July heating degree days 1449 1553  
Cooling Degree Days 0 0  
Month to date cooling degree days 0 0  
Year to date cooling degree days 162 67  
Moisture  
Dew Point 20 °F    
Average Humidity 49    
Maximum Humidity 78    
Minimum Humidity 20    
Precipitation  
Precipitation 0.00 in 0.02 in 0.18 in (2008)
Month to date precipitation 0.18 0.21  
Year to date precipitation 11.64 10.27  
Sea Level Pressure  
Sea Level Pressure 30.16 in    
Wind  
Wind Speed 10 mph (WSW)    
Max Wind Speed 22 mph    
Max Gust Speed 25 mph    
Visibility 10 miles    
Events      
T = Trace of Precipitation, MM = Missing Value Source: NWS Daily Summary

Daily Weather History Graph

Daily Weather History Graph

Search for Another Location

Airport or City:

Trip Planner

Search our weather history database for the weather conditions in past years. The results will help you decide how hot, cold, wet, or windy it might be!

Date:

Astronomy

Nov. 10, 2013 Rise Set
Actual Time 6:45 AM MST 4:47 PM MST
Civil Twilight 6:15 AM MST 5:16 PM MST
Nautical Twilight 5:42 AM MST 5:49 PM MST
Astronomical Twilight 5:10 AM MST 6:22 PM MST
Moon 12:58 PM MST (11/10) No Moon Set
Length of Visible Light 11h 00m
Length of Day
10h 02m
First Quarter, 56% of the Moon is Illuminated
Nov 10
First Quarter
Nov 17
Full
Nov 25
Last Quarter
Dec 2
New
Dec 9
First Quarter

Hourly Weather History & Observations

Time (MST) Temp. Windchill Dew Point Humidity Pressure Visibility Wind Dir Wind Speed Gust Speed Precip Events Conditions
12:53 AM 30.9 °F 27.5 °F 24.1 °F 76% 30.12 in 10.0 mi South 3.5 mph - N/A   Clear
1:53 AM 30.0 °F 24.1 °F 23.0 °F 75% 30.13 in 10.0 mi South 5.8 mph - N/A   Clear
2:53 AM 32.0 °F 24.8 °F 23.0 °F 69% 30.14 in 10.0 mi SSW 8.1 mph - N/A   Clear
3:53 AM 36.0 °F 32.1 °F 23.0 °F 59% 30.12 in 10.0 mi South 4.6 mph - N/A   Clear
4:53 AM 34.0 °F 25.5 °F 23.0 °F 64% 30.16 in 10.0 mi South 11.5 mph - N/A   Clear
5:53 AM 37.0 °F 29.3 °F 21.9 °F 54% 30.16 in 10.0 mi SSW 11.5 mph - N/A   Clear
6:53 AM 39.9 °F 31.8 °F 21.0 °F 47% 30.17 in 10.0 mi SW 15.0 mph - N/A   Clear
7:53 AM 39.9 °F 31.8 °F 21.0 °F 47% 30.22 in 10.0 mi SW 15.0 mph - N/A   Clear
8:53 AM 45.0 °F 38.9 °F 21.9 °F 40% 30.20 in 10.0 mi WSW 12.7 mph 20.7 mph N/A   Clear
9:53 AM 50.0 °F - 21.0 °F 32% 30.16 in 10.0 mi WSW 12.7 mph - N/A   Clear
10:53 AM 55.0 °F - 19.0 °F 24% 30.14 in 10.0 mi West 13.8 mph - N/A   Clear
11:53 AM 55.0 °F - 21.9 °F 28% 30.14 in 10.0 mi Variable 4.6 mph - N/A   Clear
12:53 PM 57.0 °F - 17.1 °F 21% 30.10 in 10.0 mi WNW 15.0 mph 21.9 mph N/A   Clear
1:01 PM 57.2 °F - 15.8 °F 20% 30.24 in 10.0 mi West 12.7 mph 21.9 mph N/A   Clear
1:53 PM 55.9 °F - 15.1 °F 20% 30.11 in 10.0 mi West 11.5 mph 21.9 mph N/A   Clear
2:53 PM 55.0 °F - 15.1 °F 21% 30.10 in 10.0 mi West 16.1 mph - N/A   Clear
3:53 PM 53.1 °F - 15.1 °F 22% 30.09 in 10.0 mi WNW 13.8 mph - N/A   Clear
4:53 PM 43.0 °F 37.2 °F 17.1 °F 35% 30.17 in 10.0 mi NW 10.4 mph - N/A   Clear
5:53 PM 36.0 °F 31.1 °F 16.0 °F 44% 30.21 in 10.0 mi West 5.8 mph - N/A   Clear
6:53 PM 39.9 °F 33.9 °F 18.0 °F 41% 30.19 in 10.0 mi WNW 9.2 mph - N/A   Clear
7:53 PM 36.0 °F 28.5 °F 19.0 °F 50% 30.21 in 10.0 mi WSW 10.4 mph - N/A   Clear
8:53 PM 32.0 °F 25.6 °F 19.0 °F 59% 30.20 in 10.0 mi West 6.9 mph - N/A   Clear
9:53 PM 30.0 °F 23.2 °F 19.9 °F 66% 30.19 in 10.0 mi SSW 6.9 mph - N/A   Clear
10:53 PM 30.0 °F 26.5 °F 19.9 °F 66% 30.15 in 10.0 mi South 3.5 mph - N/A   Clear
11:53 PM 32.0 °F 26.4 °F 19.0 °F 59% 30.13 in 10.0 mi WSW 5.8 mph - N/A   Clear